Back to catalog

BREEZE-M DEB

TANK

AliveHEO
NORAD 37935·DEBRIS·🇷🇺 Russia

Launched Nov 25, 2011 from Baikonur Cosmodrome

Loading…

Next Passes (next 24 hours)

TLE

FreshSource: Space-Track

Epoch: Sep 13, 2026, 20:49 UTC

1 37935U 11069C   26256.86802699  .00000963  00000-0  16971-2 0  9997
2 37935  49.0964  38.1537 7188691 185.2618 158.0708  2.33925317123144

Track BREEZE-M DEB in real time with AllMySat

Download on the App Store